CW2377 Weather Reports


Display with metric or nautical units.
time (UTC)temp
F
wind
direction
speed
MPH
gust
MPH
rain 1hr
in
rain 24hr
in
rain mn
in
humidity
%
barometer
mb
20260903030703 82 120 0.0 0.0 0.00 0.00 0.00 77 1012.8
20260903030203 82 120 0.0 0.0 0.00 0.00 0.00 77 1012.8
20260903025704 82 120 0.0 0.0 0.00 0.00 0.00 76 1012.8
20260903025203 83 120 0.0 0.0 0.00 0.00 0.00 76 1012.9
20260903024704 83 120 0.0 0.0 0.00 0.00 0.00 75 1012.8
20260903024203 83 120 0.0 0.0 0.00 0.00 0.00 74 1012.8
20260903023703 83 120 0.0 0.0 0.00 0.00 0.00 74 1012.8
20260903023203 83 120 0.0 0.0 0.00 0.00 0.00 74 1012.8
20260903022704 83 120 0.0 0.0 0.00 0.00 0.00 74 1012.7
20260903022204 82 120 0.0 0.0 0.00 0.00 0.00 76 1012.8
20260903021704 82 120 0.0 0.0 0.00 0.00 0.00 77 1012.7
20260903021204 82 120 0.0 0.0 0.00 0.00 0.00 78 1012.7
20260903020703 82 120 0.0 0.0 0.00 0.00 0.00 78 1012.7
20260903020203 82 120 0.0 0.0 0.00 0.00 0.00 78 1012.7
20260903015704 82 120 0.0 0.0 0.00 0.00 0.00 78 1012.6
20260903015203 82 120 0.0 0.0 0.00 0.00 0.00 77 1012.7
20260903014704 82 120 0.0 0.0 0.00 0.00 0.00 77 1012.6
20260903014204 82 120 0.0 0.0 0.00 0.00 0.00 76 1012.6
20260903013703 82 120 0.0 0.0 0.00 0.00 0.00 76 1012.6
20260903013203 83 120 0.0 0.0 0.00 0.00 0.00 75 1012.5
20260903012703 83 120 0.0 0.0 0.00 0.00 0.00 75 1012.5
20260903012203 83 120 0.0 0.0 0.00 0.00 0.00 74 1012.4
20260903011704 83 120 0.0 0.0 0.00 0.00 0.00 74 1012.3
20260903011203 84 120 0.0 0.0 0.00 0.00 0.00 73 1012.3
20260903010704 84 120 0.0 0.0 0.00 0.00 0.00 72 1012.2
20260903010203 84 120 0.0 0.0 0.00 0.00 0.00 71 1012.1
20260903005703 84 120 0.0 0.0 0.00 0.00 0.00 70 1012.1
20260903005204 84 120 0.0 0.0 0.00 0.00 0.00 70 1012.1
20260903004703 84 120 0.0 0.0 0.00 0.00 0.00 70 1012.0
20260903004203 85 120 0.0 0.0 0.00 0.00 0.00 69 1012.1
20260903003704 85 120 0.0 0.0 0.00 0.00 0.00 69 1012.1
20260903003203 85 120 0.0 0.0 0.00 0.00 0.00 68 1011.9
20260903002704 85 120 0.0 0.0 0.00 0.00 0.00 67 1012.0
20260903002204 86 120 0.0 0.0 0.00 0.00 0.00 67 1012.1
20260903001704 86 120 0.0 0.0 0.00 0.00 0.00 66 1012.0
20260903001203 87 120 0.0 0.0 0.00 0.00 0.00 65 1012.0
20260903000703 87 120 0.0 0.0 0.00 0.00 0.00 63 1012.0
20260903000204 87 120 0.0 0.0 0.00 0.00 0.00 62 1012.0
20260902235704 88 120 0.0 0.0 0.00 0.00 0.00 62 1011.8
20260902235204 88 120 0.0 0.0 0.00 0.00 0.00 60 1011.8
20260902234703 89 120 0.0 0.0 0.00 0.00 0.00 59 1011.8
20260902234203 89 120 0.0 0.0 0.00 0.00 0.00 58 1011.7
20260902233704 89 120 0.0 0.0 0.00 0.00 0.00 58 1011.7
20260902232703 90 120 0.0 0.0 0.00 0.00 0.00 58 1011.7
20260902232204 90 120 0.0 0.0 0.00 0.00 0.00 56 1011.7
20260902231703 90 120 0.0 0.0 0.00 0.00 0.00 56 1011.7
20260902231203 90 120 0.0 0.0 0.00 0.00 0.00 56 1011.7
20260902230704 90 120 0.0 0.0 0.00 0.00 0.00 56 1011.7
20260902230204 90 120 0.0 0.0 0.00 0.00 0.00 55 1011.7
20260902225704 90 120 0.0 0.0 0.00 0.00 0.00 56 1011.7
20260902224704 90 120 0.0 0.0 0.00 0.00 0.00 54 1011.8
20260902223703 91 120 0.0 0.0 0.00 0.00 0.00 53 1012.0
20260902223204 91 120 0.0 0.0 0.00 0.00 0.00 53 1011.8
20260902222204 91 120 0.0 0.0 0.00 0.00 0.00 53 1012.0
20260902221703 91 120 0.0 0.0 0.00 0.00 0.00 52 1012.1
20260902220703 92 120 0.0 0.0 0.00 0.00 0.00 52 1012.0
20260902220204 92 120 0.0 0.0 0.00 0.00 0.00 50 1012.0
20260902215704 92 120 0.0 0.0 0.00 0.00 0.00 50 1011.9
20260902215204 92 120 0.0 0.0 0.00 0.00 0.00 49 1012.1
20260902214703 93 120 0.0 0.0 0.00 0.00 0.00 47 1012.1
20260902214203 93 120 0.0 0.0 0.00 0.00 0.00 48 1012.1
20260902213203 93 120 0.0 0.0 0.00 0.00 0.00 45 1012.1
20260902212704 93 120 0.0 0.0 0.00 0.00 0.00 46 1012.1
20260902212203 94 120 0.0 0.0 0.00 0.00 0.00 49 1012.2
20260902211703 94 120 0.0 0.0 0.00 0.00 0.00 48 1012.2
20260902211204 94 120 0.0 0.0 0.00 0.00 0.00 48 1012.2
20260902210704 94 120 0.0 0.0 0.00 0.00 0.00 48 1012.1
20260902210204 95 120 0.0 0.0 0.00 0.00 0.00 47 1012.3
20260902205705 95 120 0.0 0.0 0.00 0.00 0.00 49 1012.2
20260902204204 95 120 0.0 0.0 0.00 0.00 0.00 45 1012.2
20260902203704 95 120 0.0 0.0 0.00 0.00 0.00 48 1012.2
20260902203203 95 120 0.0 0.0 0.00 0.00 0.00 47 1012.3
20260902202703 96 120 0.0 0.0 0.00 0.00 0.00 45 1012.3
20260902202204 96 120 0.0 0.0 0.00 0.00 0.00 45 1012.4
20260902201204 95 120 0.0 0.0 0.00 0.00 0.00 45 1012.4
20260902200703 95 120 0.0 0.0 0.00 0.00 0.00 44 1012.5
20260902200204 96 120 0.0 0.0 0.00 0.00 0.00 43 1012.4
20260902195703 96 120 0.0 0.0 0.00 0.00 0.00 47 1012.4
20260902195204 96 120 0.0 0.0 0.00 0.00 0.00 46 1012.4
20260902194204 96 120 0.0 0.0 0.00 0.00 0.00 47 1012.5
20260902193704 96 120 0.0 0.0 0.00 0.00 0.00 46 1012.5
20260902193204 96 120 0.0 0.0 0.00 0.00 0.00 48 1012.7
20260902192203 96 120 0.0 0.0 0.00 0.00 0.00 47 1012.8
20260902191704 96 120 0.0 0.0 0.00 0.00 0.00 45 1012.8
20260902191204 96 120 0.0 0.0 0.00 0.00 0.00 43 1012.8
20260902190703 96 120 0.0 0.0 0.00 0.00 0.00 44 1012.9
20260902190204 96 120 0.0 0.0 0.00 0.00 0.00 44 1012.9
20260902185704 96 120 0.0 0.0 0.00 0.00 0.00 44 1013.0
20260902184704 96 120 0.0 0.0 0.00 0.00 0.00 44 1013.0
20260902184203 95 120 0.0 0.0 0.00 0.00 0.00 47 1013.0
20260902183703 95 120 0.0 0.0 0.00 0.00 0.00 47 1013.1
20260902182203 93 120 0.0 0.0 0.00 0.00 0.00 50 1013.1
20260902181703 94 120 0.0 0.0 0.00 0.00 0.00 53 1013.1
20260902181203 93 120 0.0 0.0 0.00 0.00 0.00 51 1013.2
20260902180704 94 120 0.0 0.0 0.00 0.00 0.00 52 1013.1
20260902180203 94 120 0.0 0.0 0.00 0.00 0.00 52 1013.2
20260902175704 94 120 0.0 0.0 0.00 0.00 0.00 51 1013.3
20260902175204 94 120 0.0 0.0 0.00 0.00 0.00 51 1013.2
20260902174703 93 120 0.0 0.0 0.00 0.00 0.00 51 1013.2
20260902174204 94 120 0.0 0.0 0.00 0.00 0.00 51 1013.2
20260902173703 94 120 0.0 0.0 0.00 0.00 0.00 48 1013.3
20260902173203 94 120 0.0 0.0 0.00 0.00 0.00 50 1013.3
20260902172703 94 120 0.0 0.0 0.00 0.00 0.00 49 1013.4
20260902171704 94 120 0.0 0.0 0.00 0.00 0.00 51 1013.4
20260902171203 93 120 0.0 0.0 0.00 0.00 0.00 52 1013.5
20260902170204 93 120 0.0 0.0 0.00 0.00 0.00 53 1013.5
20260902165704 92 120 0.0 0.0 0.00 0.00 0.00 52 1013.6
20260902165203 92 120 0.0 0.0 0.00 0.00 0.00 52 1013.8
20260902164704 92 120 0.0 0.0 0.00 0.00 0.00 54 1013.7
20260902164203 92 120 0.0 0.0 0.00 0.00 0.00 54 1013.7
20260902163703 91 120 0.0 0.0 0.00 0.00 0.00 55 1013.7
20260902163203 91 120 0.0 0.0 0.00 0.00 0.00 56 1013.8
20260902162703 90 120 0.0 0.0 0.00 0.00 0.00 56 1013.8
20260902162204 90 120 0.0 0.0 0.00 0.00 0.00 57 1013.8
20260902161703 90 120 0.0 0.0 0.00 0.00 0.00 59 1013.8
20260902161204 89 120 0.0 0.0 0.00 0.00 0.00 58 1013.9
20260902160704 89 120 0.0 0.0 0.00 0.00 0.00 57 1013.9
20260902155704 89 120 0.0 0.0 0.00 0.00 0.00 59 1014.0
20260902155204 89 120 0.0 0.0 0.00 0.00 0.00 57 1014.0
20260902154703 88 120 0.0 0.0 0.00 0.00 0.00 60 1014.0
20260902154204 88 120 0.0 0.0 0.00 0.00 0.00 59 1014.2
20260902153703 87 120 0.0 0.0 0.00 0.00 0.00 59 1014.1
20260902151703 85 120 0.0 0.0 0.00 0.00 0.00 62 1014.0
20260902151204 84 120 0.0 0.0 0.00 0.00 0.00 64 1014.0
20260902150705 84 120 0.0 0.0 0.00 0.00 0.00 66 1014.0
20260902150203 83 120 0.0 0.0 0.00 0.00 0.00 66 1014.3
20260902145703 83 120 0.0 0.0 0.00 0.00 0.00 66 1014.3
20260902145204 83 120 0.0 0.0 0.00 0.00 0.00 66 1014.3
20260902144704 82 120 0.0 0.0 0.00 0.00 0.00 67 1014.3
20260902144203 82 120 0.0 0.0 0.00 0.00 0.00 68 1014.5
20260902143703 82 120 0.0 0.0 0.00 0.00 0.00 69 1014.5
20260902143203 81 120 0.0 0.0 0.00 0.00 0.00 69 1014.4
20260902142705 81 120 0.0 0.0 0.00 0.00 0.00 71 1014.4
20260902141704 80 120 0.0 0.0 0.00 0.00 0.00 73 1014.3
20260902141203 80 120 0.0 0.0 0.00 0.00 0.00 72 1014.4
20260902140703 80 120 0.0 0.0 0.00 0.00 0.00 72 1014.5
20260902140204 80 120 0.0 0.0 0.00 0.00 0.00 72 1014.7
20260902135704 81 120 0.0 0.0 0.00 0.00 0.00 71 1014.6
20260902135204 81 120 0.0 0.0 0.00 0.00 0.00 70 1014.6
20260902134703 81 120 0.0 0.0 0.00 0.00 0.00 70 1014.6
20260902134204 81 120 0.0 0.0 0.00 0.00 0.00 71 1014.7
20260902133704 80 120 0.0 0.0 0.00 0.00 0.00 72 1014.8
20260902133204 80 120 0.0 0.0 0.00 0.00 0.00 73 1014.4
20260902132704 80 120 0.0 0.0 0.00 0.00 0.00 74 1014.8
20260902132204 79 120 0.0 0.0 0.00 0.00 0.00 75 1014.6
20260902131204 79 120 0.0 0.0 0.00 0.00 0.00 74 1015.0
20260902130704 79 120 0.0 0.0 0.00 0.00 0.00 75 1014.6
20260902130204 79 120 0.0 0.0 0.00 0.00 0.00 75 1014.7
20260902125703 79 120 0.0 0.0 0.00 0.00 0.00 74 1015.0
20260902124704 79 120 0.0 0.0 0.00 0.00 0.00 75 1014.2
20260902124204 78 120 0.0 0.0 0.00 0.00 0.00 76 1014.1
20260902123703 78 120 0.0 0.0 0.00 0.00 0.00 76 1014.1
20260902123204 78 120 0.0 0.0 0.00 0.00 0.00 75 1014.3
20260902122703 78 120 0.0 0.0 0.00 0.00 0.00 75 1014.2
20260902121704 78 120 0.0 0.0 0.00 0.00 0.00 76 1014.2
20260902121203 77 120 0.0 0.0 0.00 0.00 0.00 77 1014.2
20260902120703 77 120 0.0 0.0 0.00 0.00 0.00 78 1014.1
20260902120204 77 120 0.0 0.0 0.00 0.00 0.00 78 1014.0
20260902115203 77 120 0.0 0.0 0.00 0.00 0.00 79 1013.9
20260902114705 77 120 0.0 0.0 0.00 0.00 0.00 78 1014.0
20260902114203 77 120 0.0 0.0 0.00 0.00 0.00 78 1013.9
20260902113704 77 120 0.0 0.0 0.00 0.00 0.00 79 1013.8
20260902113203 77 120 0.0 0.0 0.00 0.00 0.00 80 1013.8
20260902112703 77 120 0.0 0.0 0.00 0.00 0.00 80 1013.7
20260902112204 77 120 0.0 0.0 0.00 0.00 0.00 80 1013.8
20260902111704 77 120 0.0 0.0 0.00 0.00 0.00 79 1013.8
20260902111203 77 120 0.0 0.0 0.00 0.00 0.00 79 1013.9
20260902105704 77 120 0.0 0.0 0.00 0.00 0.00 79 1013.9
20260902104703 77 120 0.0 0.0 0.00 0.00 0.00 79 1014.0
20260902104203 77 120 0.0 0.0 0.00 0.00 0.00 79 1013.9
20260902103704 77 120 0.0 0.0 0.00 0.00 0.00 78 1014.0
20260902103203 77 120 0.0 0.0 0.00 0.00 0.00 78 1013.9
20260902102204 77 120 0.0 0.0 0.00 0.00 0.00 79 1014.0
20260902101704 77 120 0.0 0.0 0.00 0.00 0.00 79 1014.1
20260902101203 77 120 0.0 0.0 0.00 0.00 0.00 78 1014.0
20260902100704 77 120 0.0 0.0 0.00 0.00 0.00 78 1014.0
20260902095703 78 120 0.0 0.0 0.00 0.00 0.00 78 1014.0
20260902094704 78 120 0.0 0.0 0.00 0.00 0.00 78 1014.0
20260902094204 78 120 0.0 0.0 0.00 0.00 0.00 78 1014.0
20260902093704 78 120 0.0 0.0 0.00 0.00 0.00 78 1014.1
20260902092204 78 120 0.0 0.0 0.00 0.00 0.00 78 1014.1
20260902091704 78 120 0.0 0.0 0.00 0.00 0.00 78 1014.0
20260902091204 78 120 0.0 0.0 0.00 0.00 0.00 78 1014.0
20260902090704 78 120 0.0 0.0 0.00 0.00 0.00 78 1014.0
20260902085703 78 120 0.0 0.0 0.00 0.00 0.00 78 1013.9
20260902085204 78 120 0.0 0.0 0.00 0.00 0.00 78 1013.9
20260902084703 78 120 0.0 0.0 0.00 0.00 0.00 78 1013.9
20260902083703 78 120 0.0 0.0 0.00 0.00 0.00 78 1013.7
20260902083203 78 120 0.0 0.0 0.00 0.00 0.00 78 1013.7
20260902082704 78 120 0.0 0.0 0.00 0.00 0.00 78 1013.7
20260902082203 78 120 0.0 0.0 0.00 0.00 0.00 78 1013.7
20260902081703 79 120 0.0 0.0 0.00 0.00 0.00 78 1013.6
20260902081204 79 120 0.0 0.0 0.00 0.00 0.00 77 1013.7
20260902080703 79 120 0.0 0.0 0.00 0.00 0.00 77 1013.7
20260902080203 79 120 0.0 0.0 0.00 0.00 0.00 77 1013.7
20260902075703 79 120 0.0 0.0 0.00 0.00 0.00 77 1013.7
20260902075203 79 120 0.0 0.0 0.00 0.00 0.00 77 1013.7
20260902074704 79 120 0.0 0.0 0.00 0.00 0.00 77 1013.7
20260902074204 79 120 0.0 0.0 0.00 0.00 0.00 76 1013.7
20260902073704 79 120 0.0 0.0 0.00 0.00 0.00 76 1013.7
20260902073203 79 120 0.0 0.0 0.00 0.00 0.00 77 1013.8
20260902072703 79 120 0.0 0.0 0.00 0.00 0.00 77 1013.7
20260902072203 79 120 0.0 0.0 0.00 0.00 0.00 77 1013.7
20260902071704 79 120 0.0 0.0 0.00 0.00 0.00 77 1013.7
20260902071204 79 120 0.0 0.0 0.00 0.00 0.00 77 1013.7
20260902070704 79 120 0.0 0.0 0.00 0.00 0.00 77 1013.6
20260902070203 79 120 0.0 0.0 0.00 0.00 0.00 77 1013.7
20260902065703 79 120 0.0 0.0 0.00 0.00 0.00 76 1013.5
20260902064703 80 120 0.0 0.0 0.00 0.00 0.00 76 1013.7
20260902064203 80 120 0.0 0.0 0.00 0.00 0.00 76 1013.7
20260902063204 80 120 0.0 0.0 0.00 0.00 0.00 75 1013.8
20260902062703 80 120 0.0 0.0 0.00 0.00 0.00 75 1013.8
20260902062204 80 120 0.0 0.0 0.00 0.00 0.00 75 1013.8
20260902061703 80 120 0.0 0.0 0.00 0.00 0.00 76 1013.9
20260902060704 80 120 0.0 0.0 0.00 0.00 0.00 75 1013.8
20260902060204 80 120 0.0 0.0 0.00 0.00 0.00 75 1013.7
20260902055703 80 120 0.0 0.0 0.00 0.00 0.00 75 1013.7
20260902055204 80 120 0.0 0.0 0.00 0.00 0.00 75 1013.7
20260902054704 81 120 0.0 0.0 0.00 0.00 0.00 75 1013.7
20260902054203 81 120 0.0 0.0 0.00 0.00 0.00 75 1013.6
20260902053703 81 120 0.0 0.0 0.00 0.00 0.00 75 1013.6
20260902053204 81 120 0.0 0.0 0.00 0.00 0.00 75 1013.6
20260902052703 81 120 0.0 0.0 0.00 0.00 0.00 75 1013.7
20260902052204 81 120 0.0 0.0 0.00 0.00 0.00 75 1013.7
20260902051203 81 120 0.0 0.0 0.00 0.00 0.00 76 1013.7
20260902050204 81 120 0.0 0.0 0.00 0.00 0.00 75 1013.6
20260902045703 81 120 0.0 0.0 0.00 0.00 0.00 76 1013.7
20260902045203 81 120 0.0 0.0 0.00 0.00 0.00 76 1013.7
20260902044704 81 120 0.0 0.0 0.00 0.00 0.00 76 1013.7
20260902043704 81 120 0.0 0.0 0.00 0.00 0.00 75 1013.6
20260902043204 81 120 0.0 0.0 0.00 0.00 0.00 75 1013.5
20260902042704 82 120 0.0 0.0 0.00 0.00 0.00 74 1013.5
20260902042203 82 120 0.0 0.0 0.00 0.00 0.00 74 1013.6
20260902041703 82 120 0.0 0.0 0.00 0.00 0.00 74 1013.6
20260902041203 82 120 0.0 0.0 0.00 0.00 0.00 73 1013.6
20260902040704 82 120 0.0 0.0 0.00 0.00 0.00 73 1013.7
20260902040203 82 120 0.0 0.0 0.00 0.00 0.00 73 1013.7
20260902035204 82 120 0.0 0.0 0.00 0.00 0.00 74 1013.6
20260902034704 82 120 0.0 0.0 0.00 0.00 0.00 73 1013.7
20260902034204 82 120 0.0 0.0 0.00 0.00 0.00 73 1013.7
20260902033703 82 120 0.0 0.0 0.00 0.00 0.00 74 1013.8
20260902033204 82 120 0.0 0.0 0.00 0.00 0.00 73 1013.8
20260902032703 82 120 0.0 0.0 0.00 0.00 0.00 74 1013.8
20260902032204 82 120 0.0 0.0 0.00 0.00 0.00 74 1013.8
20260902031703 82 120 0.0 0.0 0.00 0.00 0.00 74 1013.9
20260902031204 82 120 0.0 0.0 0.00 0.00 0.00 76 1013.9